Terminal Aerodrome Forecast
Issued by NWS Tuscon, AZ

Home | Current Version | Previous Version | Text Only | Print | Product List | Glossary On
Versions: 1 2 3 4 5 6 7 8 9 10 11 12 13 14
000
FTUS45 KTWC 172300 RRA
TAFTUS
TAF
KTUS 172342Z 1800/1824 24005KT P6SM SCT250
     FM180700 15007KT P6SM FEW150 OVC250
     FM181900 19012G18KT P6SM SCT150 OVC250=

USA.gov is the U.S. government's official web portal to all federal, state and local government web resources and services.